HS2LXA-13 Weather Reports


Display with metric or nautical units.
time (UTC)temp
F
wind
direction
speed
MPH
gust
MPH
rain 1hr
in
rain 24hr
in
rain mn
in
humidity
%
barometer
mb
20260502122949 87 0 9.0 20.0 0.00 0.00 0.00 78 1007.6
20260502121948 87 225 2.0 4.0 0.00 0.00 0.00 78 1007.6
20260502120951 88 0 1.0 2.0 0.00 0.00 0.00 79 1007.6
20260502114945 88 67 7.0 16.0 0.00 0.00 0.00 79 1007.5
20260502113944 89 67 8.0 18.0 0.00 0.00 0.00 78 1007.2
20260502112943 89 67 11.0 25.0 0.00 0.00 0.00 75 1007.3
20260502111944 90 112 8.0 19.0 0.00 0.00 0.00 75 1007.2
20260502110941 90 67 0.0 0.0 0.00 0.00 0.00 75 1007.1
20260502105940 90 0 6.0 13.0 0.00 0.00 0.00 74 1007.1
20260502104938 90 202 2.0 5.0 0.00 0.00 0.00 76 1007.0
20260502103936 91 112 7.0 17.0 0.00 0.00 0.00 75 1007.0
20260502102937 91 112 4.0 9.0 0.00 0.00 0.00 78 1006.8
20260502101933 91 202 3.0 8.0 0.00 0.00 0.00 79 1006.8
20260502100932 91 112 9.0 21.0 0.00 0.00 0.00 78 1006.9
20260502090914 94 112 2.0 5.0 0.00 0.00 0.00 76 1007.2
20260502071216 95 315 19.0 44.0 0.00 0.00 0.00 71 1008.4
20260502070213 95 0 6.0 15.0 0.00 0.00 0.00 73 1008.6
20260502065212 95 112 19.0 43.0 0.00 0.00 0.00 72 1009.0
20260502064212 96 315 3.0 6.0 0.00 0.00 0.00 72 1009.0
20260502063212 96 315 7.0 17.0 0.00 0.00 0.00 71 1009.3
20260502062209 96 225 10.0 24.0 0.00 0.00 0.00 73 1009.6
20260502061207 95 0 10.0 24.0 0.00 0.00 0.00 73 1009.6
20260502060207 96 112 11.0 26.0 0.00 0.00 0.00 71 1009.6
20260502055206 95 0 9.0 20.0 0.00 0.00 0.00 72 1009.9
20260502054204 96 0 6.0 13.0 0.00 0.00 0.00 73 1010.0
20260502053207 95 112 9.0 20.0 0.00 0.00 0.00 73 1010.2
20260502052203 95 0 7.0 16.0 0.00 0.00 0.00 74 1010.2
20260502051202 96 0 12.0 28.0 0.00 0.00 0.00 75 1010.5
20260502050158 96 225 5.0 11.0 0.00 0.00 0.00 76 1010.6
20260502045158 97 112 0.0 0.0 0.00 0.00 0.00 76 1010.7
20260502044158 95 315 0.0 0.0 0.00 0.00 0.00 76 1010.8
20260502043202 96 67 0.0 0.0 0.00 0.00 0.00 77 1011.0
20260502042154 95 315 0.0 0.0 0.00 0.00 0.00 76 1011.1
20260502041154 95 135 0.0 0.0 0.00 0.00 0.00 73 1011.2
20260502040152 95 112 0.0 0.0 0.00 0.00 0.00 74 1011.1
20260502035151 94 0 0.0 0.0 0.00 0.00 0.00 73 1011.1
20260502034149 95 0 0.0 0.0 0.00 0.00 0.00 74 1011.2
20260502033147 94 67 0.0 0.0 0.00 0.00 0.00 74 1011.2
20260502032140 95 112 0.0 0.0 0.00 0.00 0.00 75 1011.1
20260502031138 95 0 0.0 0.0 0.00 0.00 0.00 75 1011.2
20260502030137 94 0 0.0 0.0 0.00 0.00 0.00 76 1011.2
20260502025136 94 135 0.0 0.0 0.00 0.00 0.00 80 1011.1
20260502024131 93 67 1.0 3.0 0.00 0.00 0.00 80 1011.2
20260502023129 92 112 12.0 27.0 0.00 0.00 0.00 81 1011.2
20260502022127 91 0 4.0 10.0 0.00 0.00 0.00 81 1011.2
20260502021126 90 225 0.0 1.0 0.00 0.00 0.00 80 1011.3
20260502020123 89 225 1.0 4.0 0.00 0.00 0.00 80 1011.3
20260502015122 88 225 0.0 0.0 0.00 0.00 0.00 80 1011.2
20260502014120 87 225 0.0 1.0 0.00 0.00 0.00 78 1011.2
20260502013118 87 0 9.0 20.0 0.00 0.00 0.00 76 1011.0
20260502012117 86 0 2.0 4.0 0.00 0.00 0.00 78 1011.1
20260502011117 84 225 0.0 0.0 0.00 0.00 0.00 78 1011.0
20260502010116 84 90 0.0 0.0 0.00 0.00 0.00 78 1010.9
20260502005122 84 112 0.0 0.0 0.00 0.00 0.00 78 1011.0
20260502004115 83 112 1.0 3.0 0.00 0.00 0.00 80 1011.0
20260502003113 82 112 0.0 0.0 0.00 0.00 0.00 80 1010.8
20260502002107 83 22 2.0 5.0 0.00 0.00 0.00 80 1010.9
20260502001107 83 270 7.0 16.0 0.00 0.00 0.00 80 1010.7
20260502000105 82 0 0.0 0.0 0.00 0.00 0.00 80 1010.6
20260501235104 84 0 4.0 9.0 0.00 0.00 0.00 80 1010.5
20260501234102 84 112 0.0 0.0 0.00 0.00 0.00 81 1010.3
20260501233104 84 225 0.0 0.0 0.00 0.00 0.00 81 1010.1
20260501232100 83 202 2.0 5.0 0.00 0.00 0.00 81 1010.2
20260501231059 83 22 1.0 3.0 0.00 0.00 0.00 83 1010.1
20260501230056 83 112 9.0 21.0 0.00 0.00 0.00 85 1010.1
20260501225053 84 22 17.0 39.0 0.00 0.00 0.00 85 1009.9
20260501224049 85 270 0.0 0.0 0.00 0.00 0.00 85 1009.7
20260501223049 84 0 3.0 7.0 0.00 0.00 0.00 86 1009.5
20260501222048 86 202 4.0 10.0 0.00 0.00 0.00 84 1009.5
20260501221047 86 67 0.0 1.0 0.00 0.00 0.00 85 1009.4
20260501220044 86 202 4.0 10.0 0.00 0.00 0.00 84 1009.4
20260501215042 86 202 2.0 6.0 0.00 0.00 0.00 85 1009.4
20260501214033 86 67 0.0 0.0 0.00 0.00 0.00 84 1009.2
20260501213033 86 315 33.0 75.0 0.00 0.00 0.00 85 1009.2
20260501212034 86 112 7.0 16.0 0.00 0.00 0.00 84 1009.1
20260501211032 86 67 7.0 15.0 0.00 0.00 0.00 84 1009.1
20260501210030 86 67 9.0 20.0 0.00 0.00 0.00 84 1009.1
20260501205031 86 202 0.0 0.0 0.00 0.00 0.00 84 1009.1
20260501204028 86 67 0.0 0.0 0.00 0.00 0.00 84 1009.1
20260501203052 86 202 0.0 0.0 0.00 0.00 0.00 83 1009.0
20260501202026 86 67 0.0 0.0 0.00 0.00 0.00 83 1008.9
20260501201025 86 67 0.0 0.0 0.00 0.00 0.00 83 1009.1
20260501200024 86 202 0.0 0.0 0.00 0.00 0.00 83 1009.1
20260501195022 86 315 0.0 0.0 0.00 0.00 0.00 83 1009.0
20260501194022 86 67 0.0 0.0 0.00 0.00 0.00 84 1008.9
20260501193020 86 202 0.0 0.0 0.00 0.00 0.00 83 1009.0
20260501192018 86 202 0.0 0.0 0.00 0.00 0.00 83 1009.0
20260501191016 86 67 0.0 0.0 0.00 0.00 0.00 84 1009.0
20260501190013 86 112 0.0 0.0 0.00 0.00 0.00 84 1009.3
20260501185009 86 315 0.0 0.0 0.00 0.00 0.00 84 1009.5
20260501184009 86 67 0.0 0.0 0.00 0.00 0.00 83 1009.6
20260501183007 86 112 0.0 0.0 0.00 0.00 0.00 83 1009.8
20260501182007 86 67 0.0 0.0 0.00 0.00 0.00 83 1009.8
20260501180038 86 67 0.0 1.0 0.00 0.00 0.00 84 1009.9
20260501175036 86 0 0.0 0.0 0.00 0.00 0.00 86 1010.2
20260501174036 86 112 0.0 0.0 0.00 0.00 0.00 89 1010.3
20260501173035 85 112 1.0 3.0 0.00 0.00 0.00 90 1010.5
20260501172033 85 112 3.0 6.0 0.00 0.00 0.00 90 1010.7
20260501171031 86 67 0.0 0.0 0.00 0.00 0.00 90 1010.9
20260501170031 86 0 3.0 8.0 0.00 0.00 0.00 90 1011.0
20260501165031 86 112 0.0 0.0 0.09 0.00 0.19 90 1010.9
20260501164029 86 0 0.0 0.0 0.09 0.00 0.19 89 1010.9
20260501163027 86 0 0.0 0.0 0.09 0.00 0.19 89 1010.8
20260501162026 86 0 0.0 0.0 0.09 0.00 0.19 91 1010.8
20260501161024 86 67 0.0 0.0 0.09 0.00 0.19 91 1010.7
20260501160023 86 0 0.0 0.0 0.09 0.00 0.19 91 1010.8
20260501155021 86 112 0.0 0.0 0.09 0.00 0.19 91 1010.9
20260501154022 86 0 0.0 0.0 0.09 0.00 0.19 90 1011.0
20260501153020 86 67 0.0 0.0 0.09 0.00 0.19 90 1011.0
20260501152016 86 112 0.0 0.0 0.09 0.00 0.19 90 1011.0
20260501151013 86 112 0.0 0.0 0.09 0.00 0.19 89 1010.9
20260501150012 86 0 0.0 0.0 0.09 0.00 0.19 90 1011.0
20260501145011 86 112 0.0 0.0 0.09 0.00 0.19 89 1010.9
20260501144008 86 315 0.0 0.0 0.09 0.00 0.19 89 1010.9
20260501143008 86 112 0.0 0.0 0.09 0.00 0.19 89 1010.7